全部
San Pedro Ranch Airport (Carrizo Springs, TX) 97TX 天氣
There is no TAF data available at 97TX or any nearby airports.
There is no METAR data available at 97TX. Showing METAR data for KCZT (22 mi NE).
CZT近期METAR歷史資料(97TX無資料)
| Date | Time (CDT) | Flight Rules | Wind Dir. | Speed | Type | Height AGL (ft) | Visibility | Temp (°C) | Temp (°F) | Dew Point (°C) | Dew Point (°F) | Rel. Humid. | Pressure | Density Altitude | Remarks |
|---|---|---|---|---|---|---|---|---|---|---|---|---|---|---|---|
| 05-五月 | 04:15 | VFR | 150° | 3 kt | 10 miles | 20° | 68° | 20° | 68° | 100% | 29.75 in Hg | 1,368 ft | |||
| 05-五月 | 03:55 | VFR | 140° | 4 kt | 10 miles | 20° | 68° | 20° | 68° | 100% | 29.75 in Hg | 1,368 ft | |||
| 05-五月 | 03:15 | VFR | 150° | 3 kt | 10 miles | 20° | 68° | 20° | 68° | 100% | 29.76 in Hg | 1,358 ft | |||
| 05-五月 | 02:55 | VFR | 150° | 3 kt | 10 miles | 20° | 68° | 20° | 68° | 100% | 29.77 in Hg | 1,348 ft | |||
| 05-五月 | 02:15 | VFR | 150° | 5 kt | 10 miles | 21° | 69° | 21° | 69° | 100% | 29.78 in Hg | 1,458 ft | |||
| 05-五月 | 01:55 | VFR | 140° | 4 kt | 10 miles | 21° | 69° | 21° | 69° | 100% | 29.79 in Hg | 1,448 ft | |||
| 05-五月 | 01:35 | VFR | 150° | 5 kt | 10 miles | 21° | 69° | 21° | 69° | 100% | 29.80 in Hg | 1,438 ft | |||
| 05-五月 | 01:15 | VFR | 140° | 4 kt | 10 miles | 21° | 69° | 21° | 69° | 100% | 29.81 in Hg | 1,428 ft | |||
| 05-五月 | 00:15 | VFR | 150° | 3 kt | 10 miles | 21° | 69° | 21° | 69° | 100% | 29.82 in Hg | 1,418 ft | |||
| 04-五月 | 23:55 | VFR | 150° | 3 kt | 10 miles | 21° | 69° | 21° | 69° | 100% | 29.82 in Hg | 1,418 ft | |||
| 04-五月 | 23:15 | VFR | Calm | 10 miles | 22° | 71° | 20° | 68° | 88% | 29.82 in Hg | 1,538 ft | ||||
| 04-五月 | 22:55 | VFR | 130° | 3 kt | 10 miles |
22° | 71° | 19° | 66° | 83% | 29.81 in Hg | 1,548 ft | |||
| 04-五月 | 22:15 | VFR | 150° | 3 kt | 7 miles |
22° | 71° | 18° | 64° | 78% | 29.81 in Hg | 1,548 ft | |||
| 04-五月 | 21:55 | VFR | Calm | 10 miles | 23° | 73° | 18° | 64° | 73% | 29.81 in Hg | 1,668 ft | ||||
| 04-五月 | 21:35 | VFR | 150° | 3 kt | 10 miles | 23° | 73° | 18° | 64° | 73% | 29.80 in Hg | 1,678 ft | |||
| 04-五月 | 21:15 | VFR | 140° | 3 kt | 10 miles | 24° | 75° | 18° | 64° | 69% | 29.79 in Hg | 1,808 ft | |||
| 04-五月 | 20:55 | VFR | 140° | 4 kt | 10 miles |
24° | 75° | 18° | 64° | 69% | 29.79 in Hg | 1,808 ft | |||
| 04-五月 | 20:15 | VFR | 150° | 4 kt | 7 miles | 26° | 78° | 17° | 62° | 58% | 29.79 in Hg | 2,048 ft | |||
| 04-五月 | 19:55 | VFR | 150° | 7 kt | 7 miles |
27° | 80° | 17° | 62° | 54% | 29.78 in Hg | 2,178 ft | |||
| 04-五月 | 19:35 | VFR | 150° | 7 kt | 10 miles | 27° | 80° | 17° | 62° | 54% | 29.79 in Hg | 2,168 ft | |||
| 04-五月 | 19:15 | VFR | 160° | 11 kt | 10 miles | 28° | 82° | 17° | 62° | 51% | 29.78 in Hg | 2,298 ft | Wind gusting to 15 KT | ||
| 04-五月 | 18:55 | VFR | 150° | 8 kt | 10 miles | 28° | 82° | 17° | 62° | 51% | 29.79 in Hg | 2,288 ft | |||
| 04-五月 | 18:15 | VFR | 150° | 12 kt | 10 miles | 28° | 82° | 17° | 62° | 51% | 29.79 in Hg | 2,288 ft | |||
| 04-五月 | 17:55 | VFR | 140° | 10 kt | 10 miles | 29° | 84° | 17° | 62° | 48% | 29.80 in Hg | 2,398 ft | Wind gusting to 15 KT |
登入
| 您的瀏覽器不支援. 升級您的瀏覽器 |
